Regional Weather Roundup
Issued by NWS Little Rock, AR

Home | Current Version | Previous Version | Text Only | Print | Product List | Glossary On
Versions: 1 2 3 4 5 6 7 8 9 10 11 12 13 14 15 16 17 18 19 20 21 22 23 24 25 26 27 28 29 30 31 32
000
ASUS44 KLZK 232005
RWRLZK

WEATHER ROUNDUP FOR ARKANSAS
NATIONAL WEATHER SERVICE LITTLE ROCK AR
300 PM CDT WED AUG 23 2017

NOTE: "FAIR" INDICATES FEW OR NO CLOUDS BELOW 12,000 FEET WITH NO
SIGNIFICANT WEATHER AND/OR OBSTRUCTIONS TO VISIBILITY.

ARZ001-003-010-029-232100-
NORTHWEST ARKANSAS

CITY           SKY/WX    TMP DP  RH WIND       PRES   REMARKS
FAYETTEVILLE   MOSUNNY   82  66  58 VRB3      30.06F
FORT SMITH     MOSUNNY   84  73  69 VRB7      30.01F HX  90
HARRISON       MOSUNNY   80  62  54 NE7       30.08F
BENTONVILLE    MOSUNNY   79  61  53 E7        30.08F
ROGERS         PTSUNNY   79  63  57 NE8       30.08F
HIGHFILL       PTSUNNY   81  65  58 SE7       30.07F
SPRINGDALE     MOSUNNY   79  64  61 E3        30.09F
$$

ARZ004-005-016-232100-
NORTH CENTRAL ARKANSAS

CITY           SKY/WX    TMP DP  RH WIND       PRES   REMARKS
FLIPPIN        SUNNY     81  57  44 NE5       30.04F
MTN HOME       MOSUNNY   79  61  53 NE3       30.06F
$$

ARZ040-041-232100-
WEST CENTRAL ARKANSAS

CITY           SKY/WX    TMP DP  RH WIND       PRES   REMARKS
MENA           PTSUNNY   84  79  84 NE7       30.03F HX  96
MOUNT IDA      PTSUNNY   85  68  56 VRB6      29.99F HX  88
$$

ARZ009-017-025-026-028-232100-
NORTHEAST ARKANSAS

CITY           SKY/WX    TMP DP  RH WIND       PRES   REMARKS
CORNING        FAIR      81  63  54 CALM      30.04F
JONESBORO      PTSUNNY   81  65  58 NE9       30.03F
NEWPORT        CLOUDY    79  67  66 NE6       30.04F
WALNUT RIDGE   PTSUNNY   81  61  50 CALM      30.04F
BLYTHEVILLE    CLOUDY    80  64  58 N7        30.03F
NW BLYTHEVILLE PTSUNNY   82  61  47 N8        30.03F
$$

ARZ022-023-033-042-044-232100-
CENTRAL ARKANSAS

CITY           SKY/WX    TMP DP  RH WIND       PRES   REMARKS
LITTLE ROCK    CLOUDY    82  72  71 E9        30.00F HX  87
N LITTLE ROCK    N/A     81  72  74 NE8       30.01F HX  86
JACKSONVILLE   CLOUDY    82  71  68 N9        30.01F HX  86
CONWAY           N/A     81  68  65 NE10      30.00F
SEARCY         CLOUDY    79  68  69 NE12      30.04F
HOT SPRINGS    CLOUDY    85  71  63 E7        29.99F HX  90
RUSSELLVILLE   CLOUDY    80  68  66 NE9       30.02F
CLINTON        CLOUDY    79  64  61 CALM      30.05F
$$

ARZ036-232100-
EAST ARKANSAS

CITY           SKY/WX    TMP DP  RH WIND       PRES   REMARKS
WEST MEMPHIS   CLOUDY    85  67  54 NE10      30.00F HX  87
$$

ARZ050-053-066-070-073-232100-
SOUTHWEST ARKANSAS

CITY           SKY/WX    TMP DP  RH WIND       PRES   REMARKS
ARKADELPHIA    FAIR      87  75  67 E5        29.98F HX  96
CAMDEN         CLOUDY    90  72  55 NE7       29.95F HX  96
TEXARKANA      MOSUNNY   86  72  62 E6        29.96F HX  92
EL DORADO      MOSUNNY   90  74  59 VRB6      29.95F HX  99
DE QUEEN       CLOUDY    86  74  67 E7        29.96F HX  94
$$

ARZ056-057-069-232100-
SOUTHEAST ARKANSAS

CITY           SKY/WX    TMP DP  RH WIND       PRES   REMARKS
PINE BLUFF     CLOUDY    84  72  67 N15       29.98F HX  89
MONTICELLO     MOSUNNY   90  73  57 NE7       29.96F HX  98

$$






USA.gov is the U.S. government's official web portal to all federal, state and local government web resources and services.